Flag for United Kingdom Weather past 2 weeks in Leicester, England, United Kingdom

Now
59 °F

Broken clouds.


Feels Like: 57 °F
Forecast: 45 / 57 °F
Wind: 13 mph from Southwest

Location: East Midlands

Current Time: Oct 24, 2014 at 11:34:19 AM

Latest Report: Oct 24, 2014 at 11:20 AM


Visibility: N/A

Pressure: 29.92 "Hg

Humidity: 88%

Dew point: 55 °F

Location of LeicesterLocation

Historic Weather in Leicester — Graph

°F

Leicester temperature yesterday

Maximum temperature yesterday: 61 °F (at 2:20 PM)
Minimum temperature yesterday: 52 °F (at 12:20 AM)
Average temperature yesterday: 55 °F

Past Weeks' High & Low Weather Summary

 TemperatureHumidityPressure
High66 °F (Oct 18, 11:50 AM)100% (Oct 11, 5:20 AM)30.24 "Hg (Oct 11, 5:20 AM)
Low36 °F (Oct 12, 7:20 AM)52% (Oct 10, 3:20 PM)29.30 "Hg (Oct 9, 10:20 AM)
Average54 °F87%29.77 "Hg
* Reported Oct 9 10:20 AM — Oct 24 10:20 AM, Leicester, Weather by CustomWeather, © 2014

Note: Actual official high and low records may vary slightly from our data, if they occured in-between our weather recording intervals... More about our weather records

Advertising

Leicester weather history for previous 24 hours

 ConditionsComfort  
Time TempWeatherWind HumidityBarometerVisibility
10:20 AM
Oct 24
57 °FPartly sunny.13 mph94%29.92 "HgN/A
9:20 AM57 °FScattered clouds.12 mph88%29.92 "HgN/A
8:50 AM55 °FPassing clouds.12 mph94%29.92 "HgN/A
8:20 AM55 °FPassing clouds.9 mph94%29.89 "HgN/A
7:50 AM55 °FPassing clouds.12 mph94%29.89 "HgN/A
7:20 AM55 °FPassing clouds.13 mph94%29.89 "HgN/A
6:50 AM55 °FPassing clouds.14 mph94%29.89 "HgN/A
6:20 AM55 °FPassing clouds.12 mph94%29.89 "HgN/A
5:50 AM55 °FPassing clouds.8 mph94%29.89 "HgN/A
5:20 AM55 °FPartly cloudy.9 mph100%29.89 "Hg5 mi
4:50 AM55 °FPartly cloudy.9 mph100%29.89 "Hg5 mi
4:20 AM55 °FLight rain. Partly cloudy.10 mph100%29.89 "Hg3 mi
3:50 AM55 °FLight rain. Partly cloudy.12 mph100%29.89 "Hg3 mi
3:20 AM55 °FPassing clouds.10 mph94%29.92 "HgN/A
2:50 AM57 °FSprinkles. Passing clouds.13 mph88%29.92 "HgN/A
2:20 AM57 °FPassing clouds.9 mph88%29.92 "HgN/A
1:50 AM55 °FPassing clouds.7 mph94%29.92 "HgN/A
1:20 AM55 °FPartly cloudy.10 mph100%29.92 "HgN/A
12:50 AM55 °FPartly cloudy.7 mph100%29.92 "HgN/A
12:20 AM57 °FPartly cloudy.10 mph88%29.92 "HgN/A
11:50 PM
Oct 23
57 °FPassing clouds.14 mph88%29.92 "HgN/A
11:20 PM57 °FPassing clouds.13 mph88%29.92 "HgN/A
10:50 PM57 °FPassing clouds.14 mph88%29.95 "HgN/A
10:20 PM57 °FPassing clouds.13 mph88%29.95 "HgN/A
9:50 PM57 °FPassing clouds.13 mph88%29.95 "HgN/A
9:20 PM59 °FPassing clouds.13 mph88%29.95 "HgN/A
8:50 PM59 °FPassing clouds.15 mph88%29.95 "HgN/A
8:20 PM59 °FPartly cloudy.13 mph88%29.95 "HgN/A
7:50 PM59 °FPartly cloudy.14 mph88%29.95 "HgN/A
7:20 PM59 °FPartly cloudy.14 mph88%29.95 "HgN/A
6:50 PM59 °FBroken clouds.13 mph88%29.95 "HgN/A
6:20 PM59 °FBroken clouds.13 mph88%29.95 "HgN/A
5:50 PM59 °FPartly sunny.14 mph82%29.95 "HgN/A
4:50 PM59 °FPartly sunny.15 mph82%29.95 "HgN/A
3:50 PM59 °FPartly sunny.18 mph82%29.95 "HgN/A
3:20 PM59 °FPartly sunny.18 mph82%29.98 "HgN/A
2:50 PM59 °FBroken clouds.17 mph82%29.98 "HgN/A
2:20 PM61 °FBroken clouds.14 mph77%29.98 "HgN/A
1:50 PM59 °FScattered clouds.16 mph82%30.01 "HgN/A
1:20 PM57 °FBroken clouds.17 mph82%30.01 "HgN/A
12:50 PM57 °FPartly sunny.18 mph82%30.01 "HgN/A
12:20 PM57 °FBroken clouds.16 mph82%30.01 "HgN/A
11:50 AM55 °FBroken clouds.15 mph88%30.04 "HgN/A
11:20 AM55 °FPartly sunny.17 mph88%30.04 "HgN/A
Weather by CustomWeather, © 2014

See weather overviewHow to use our weather pages